CW7847 Weather Reports


Display with metric or nautical units.
time (UTC)temp
F
wind
direction
speed
MPH
gust
MPH
rain 1hr
in
rain 24hr
in
rain mn
in
humidity
%
barometer
mb
20260504221603 78 253 1.0 13.0 0.00 0.00 0.00 51 1012.3
20260504220113 77 257 4.0 17.0 0.00 0.00 0.00 51 1012.4
20260504214548 78 246 3.0 17.0 0.00 0.00 0.00 51 1012.3
20260504213057 78 259 3.0 16.0 0.00 0.00 0.00 51 1012.4
20260504211545 78 234 3.0 13.0 0.00 0.00 0.00 52 1012.6
20260504210042 78 261 2.0 16.0 0.00 0.00 0.00 52 1012.6
20260504204556 79 254 2.0 15.0 0.00 0.00 0.00 51 1012.8
20260504203037 79 250 2.0 11.0 0.00 0.00 0.00 52 1013.1
20260504201533 78 118 2.0 15.0 0.00 0.00 0.00 52 1013.2
20260504200029 78 234 6.0 14.0 0.00 0.00 0.00 52 1013.5
20260504194531 78 252 4.0 14.0 0.00 0.00 0.00 53 1013.8
20260504193026 78 241 6.0 13.0 0.00 0.00 0.00 55 1014.2
20260504191524 77 195 4.0 13.0 0.00 0.00 0.00 54 1014.3
20260504190020 77 248 4.0 13.0 0.00 0.00 0.00 55 1014.6
20260504184530 77 263 2.0 10.0 0.00 0.00 0.00 55 1014.5
20260504183021 77 281 3.0 10.0 0.00 0.00 0.00 57 1014.7
20260504181518 77 230 2.0 12.0 0.00 0.00 0.00 58 1014.8
20260504180013 76 156 7.0 14.0 0.00 0.00 0.00 59 1015.2
20260504174511 76 129 5.0 15.0 0.00 0.00 0.00 59 1015.2
20260504173010 76 198 4.0 12.0 0.00 0.00 0.00 63 1015.4
20260504171507 76 213 3.0 13.0 0.00 0.00 0.00 65 1015.5
20260504081550 60 360 0.0 6.0 0.00 0.00 0.00 73 1016.4
20260504050021 61 360 0.0 0.0 0.00 0.00 0.00 67 1017.7
20260504044521 61 360 0.0 4.0 0.00 0.00 0.00 66 1017.7
20260504043034 62 360 0.0 4.0 0.00 0.00 0.00 66 1017.5
20260504041518 62 360 0.0 2.0 0.00 0.00 0.00 65 1017.5
20260504040020 61 360 0.0 3.0 0.00 0.00 0.00 65 1017.6
20260504034549 61 360 0.0 1.0 0.00 0.00 0.00 65 1017.6
20260504033046 61 360 0.0 2.0 0.00 0.00 0.00 65 1018.0
20260504031544 60 360 0.0 0.0 0.00 0.00 0.00 65 1018.1
20260504030044 61 360 0.0 0.0 0.00 0.00 0.00 64 1018.1
20260504024548 61 360 0.0 0.0 0.00 0.00 0.00 64 1017.9
20260504023042 61 360 0.0 0.0 0.00 0.00 0.00 63 1017.8
20260504021540 62 360 0.0 0.0 0.00 0.00 0.00 63 1017.8
20260504020111 62 227 0.0 0.0 0.00 0.00 0.00 63 1017.6
20260504014554 62 360 0.0 1.0 0.00 0.00 0.00 62 1017.8
20260504013047 64 360 0.0 0.0 0.00 0.00 0.00 60 1017.6
20260504011508 65 360 0.0 0.0 0.00 0.00 0.00 55 1017.7
20260504010009 67 360 0.0 0.0 0.00 0.00 0.00 55 1017.4
20260504004553 69 249 0.0 0.0 0.00 0.00 0.00 54 1017.4
20260504003040 70 246 0.0 0.0 0.00 0.00 0.00 54 1017.4
20260504001527 72 246 0.0 0.0 0.00 0.00 0.00 51 1017.4
20260504000026 72 246 0.0 0.0 0.00 0.00 0.00 49 1017.5
20260503234527 73 210 0.0 0.0 0.00 0.00 0.00 48 1017.5
20260503233024 74 236 0.0 4.0 0.00 0.00 0.00 47 1017.7
20260503231522 74 292 0.0 0.0 0.00 0.00 0.00 47 1018.0
20260503230020 74 225 0.0 7.0 0.00 0.00 0.00 45 1018.1
20260503224519 74 275 3.0 10.0 0.00 0.00 0.00 45 1018.3
20260503223018 74 250 0.0 8.0 0.00 0.00 0.00 45 1018.4